KC4JES Weather Reports


time (UTC)temp
C
wind
direction
speed
KPH
gust
KPH
rain 1hr
cm
rain 24hr
cm
rain mn
cm
humidity
%
barometer
mb
20260505214148 25 39 1.6 6.4 0.00 0.00 0.00 54 1016.5
20260505213646 25 89 0.0 4.8 0.00 0.00 0.00 53 1016.2
20260505213143 26 329 0.0 3.2 0.00 0.00 0.00 49 1016.6
20260505212638 26 63 1.6 3.2 0.00 0.00 0.00 49 1016.4
20260505212136 26 48 1.6 6.4 0.00 0.00 0.00 50 1016.4
20260505211633 26 107 1.6 6.4 0.00 0.00 0.00 49 1016.5
20260505211130 26 297 0.0 3.2 0.00 0.00 0.00 49 1016.4
20260505210627 27 53 4.8 6.4 0.00 0.00 0.00 48 1016.4
20260505210123 26 28 3.2 4.8 0.00 0.00 0.00 47 1016.4
20260505205621 26 37 4.8 6.4 0.00 0.00 0.00 47 1016.6
20260505205119 27 36 3.2 6.4 0.00 0.00 0.00 48 1016.6
20260505204616 27 34 1.6 6.4 0.00 0.00 0.00 45 1016.6
20260505204113 27 54 0.0 4.8 0.00 0.00 0.00 47 1016.8
20260505203609 26 47 3.2 6.4 0.00 0.00 0.00 50 1016.9
20260505203107 26 37 1.6 3.2 0.00 0.00 0.00 50 1016.9
20260505202602 27 42 1.6 6.4 0.00 0.00 0.00 47 1016.9
20260505202059 27 61 1.6 4.8 0.00 0.00 0.00 50 1016.8
20260505201555 26 50 0.0 6.4 0.00 0.00 0.00 50 1016.9
20260505201054 27 50 0.0 6.4 0.00 0.00 0.00 51 1016.9
20260505200551 27 291 4.8 6.4 0.00 0.00 0.00 50 1017.0
20260505200048 27 69 0.0 4.8 0.00 0.00 0.00 47 1017.2
20260505195544 27 16 1.6 6.4 0.00 0.00 0.00 47 1016.9
20260505195042 27 104 0.0 9.7 0.00 0.00 0.00 49 1016.8
20260505194538 27 37 0.0 4.8 0.00 0.00 0.00 50 1017.0
20260505194034 27 20 3.2 4.8 0.00 0.00 0.00 47 1017.1
20260505193531 27 347 3.2 4.8 0.00 0.00 0.00 47 1017.4
20260505193028 28 50 1.6 6.4 0.00 0.00 0.00 47 1017.4
20260505192527 28 15 1.6 3.2 0.00 0.00 0.00 46 1017.4
20260505192024 28 32 6.4 6.4 0.00 0.00 0.00 45 1017.3
20260505191522 27 55 1.6 3.2 0.00 0.00 0.00 47 1017.5
20260505191020 27 33 3.2 4.8 0.00 0.00 0.00 44 1017.7
20260505190514 28 59 1.6 8.0 0.00 0.00 0.00 43 1017.7
20260505190011 28 38 4.8 4.8 0.00 0.00 0.00 44 1017.8
20260505185508 27 209 0.0 3.2 0.00 0.00 0.00 45 1017.5
20260505185004 27 28 0.0 6.4 0.00 0.00 0.00 48 1017.7
20260505184501 27 34 1.6 3.2 0.00 0.00 0.00 49 1017.5
20260505183957 27 255 0.0 6.4 0.00 0.00 0.00 48 1017.8
20260505183454 27 45 4.8 4.8 0.00 0.00 0.00 49 1018.0
20260505182951 27 50 0.0 4.8 0.00 0.00 0.00 50 1017.5
20260505182448 27 2 1.6 3.2 0.00 0.00 0.00 47 1017.9
20260505181944 27 18 9.7 9.7 0.00 0.00 0.00 46 1017.8
20260505181442 27 117 0.0 4.8 0.00 0.00 0.00 49 1017.9
20260505180938 27 35 3.2 4.8 0.00 0.00 0.00 48 1018.0
20260505180434 27 62 3.2 4.8 0.00 0.00 0.00 49 1018.1
20260505175931 27 47 3.2 6.4 0.00 0.00 0.00 48 1018.1
20260505175428 27 107 0.0 4.8 0.00 0.00 0.00 52 1018.0
20260505174924 27 30 3.2 3.2 0.00 0.00 0.00 48 1018.0
20260505174422 26 36 3.2 4.8 0.00 0.00 0.00 49 1018.0
20260505173918 26 342 3.2 3.2 0.00 0.00 0.00 51 1018.2
20260505173414 26 337 0.0 4.8 0.00 0.00 0.00 52 1018.1
20260505172911 27 53 6.4 8.0 0.00 0.00 0.00 50 1018.0
20260505172409 26 60 6.4 8.0 0.00 0.00 0.00 50 1018.1
20260505171909 26 74 1.6 4.8 0.00 0.00 0.00 49 1018.3
20260505171406 26 282 0.0 8.0 0.00 0.00 0.00 54 1018.3
20260505170902 26 145 0.0 8.0 0.00 0.00 0.00 51 1018.3
20260505170359 26 14 0.0 3.2 0.00 0.00 0.00 52 1018.5
20260505165854 26 356 1.6 4.8 0.00 0.00 0.00 54 1018.5
20260505165350 26 78 0.0 4.8 0.00 0.00 0.00 55 1018.4
20260505164846 26 50 4.8 8.0 0.00 0.00 0.00 54 1018.4
20260505164343 26 52 6.4 6.4 0.00 0.00 0.00 55 1018.6
20260505163841 26 45 3.2 3.2 0.00 0.00 0.00 55 1018.4
20260505163340 26 57 1.6 3.2 0.00 0.00 0.00 52 1018.6
20260505162838 26 69 0.0 3.2 0.00 0.00 0.00 53 1018.6
20260505162334 25 39 3.2 6.4 0.00 0.00 0.00 55 1018.5
20260505161831 25 40 4.8 4.8 0.00 0.00 0.00 56 1018.6
20260505161328 25 39 3.2 6.4 0.00 0.00 0.00 52 1018.5
20260505160825 26 50 4.8 6.4 0.00 0.00 0.00 56 1018.6
20260505160323 26 253 0.0 4.8 0.00 0.00 0.00 55 1018.7
20260505153302 25 78 1.6 4.8 0.00 0.00 0.00 56 1018.2
20260505152800 25 38 4.8 6.4 0.00 0.00 0.00 53 1018.4
20260505152256 25 117 1.6 9.7 0.00 0.00 0.00 55 1018.5
20260505151755 25 353 1.6 6.4 0.00 0.00 0.00 53 1018.5
20260505151253 25 293 1.6 4.8 0.00 0.00 0.00 55 1018.3
20260505150750 25 29 3.2 6.4 0.00 0.00 0.00 53 1018.4
20260505150248 25 69 0.0 4.8 0.00 0.00 0.00 55 1018.5
20260505140217 24 278 0.0 3.2 0.00 0.00 0.00 60 1018.3
20260505130141 21 269 0.0 1.6 0.00 0.00 0.00 76 1017.8
20260505124631 18 50 0.0 0.0 0.00 0.00 0.00 93 1017.8
20260505124127 18 50 0.0 0.0 0.00 0.00 0.00 96 1017.7
20260505123623 18 252 0.0 0.0 0.00 0.00 0.00 96 1017.7
20260505123120 17 304 0.0 0.0 0.00 0.00 0.00 97 1017.8
20260505122617 17 294 0.0 0.0 0.00 0.00 0.00 97 1017.6
20260505122114 16 294 0.0 0.0 0.00 0.00 0.00 97 1017.7
20260505121610 16 269 0.0 0.0 0.00 0.00 0.00 97 1017.6
20260505121107 16 269 0.0 0.0 0.00 0.00 0.00 97 1017.5
20260505120604 15 50 0.0 0.0 0.00 0.00 0.00 97 1017.4
20260505120100 15 50 0.0 0.0 0.00 0.00 0.00 97 1017.3
20260505115554 15 50 0.0 0.0 0.00 0.00 0.00 97 1017.2
20260505115052 15 50 0.0 0.0 0.00 0.00 0.00 97 1017.5
20260505114549 15 50 0.0 0.0 0.00 0.00 0.00 97 1017.4
20260505114045 14 32 0.0 0.0 0.00 0.00 0.00 97 1017.4
20260505113541 14 32 0.0 0.0 0.00 0.00 0.00 97 1017.3
20260505113038 14 32 0.0 0.0 0.00 0.00 0.00 97 1017.2
20260505112535 14 22 0.0 0.0 0.00 0.00 0.00 97 1017.3
20260505112033 13 6 0.0 0.0 0.00 0.00 0.00 97 1017.2
20260505111532 13 40 0.0 0.0 0.00 0.00 0.00 97 1017.1
20260505111028 13 67 0.0 0.0 0.00 0.00 0.00 97 1017.1
20260505110525 13 69 0.0 0.0 0.00 0.00 0.00 96 1017.1
20260505101958 13 55 0.0 1.6 0.00 0.00 0.00 96 1016.6
20260505101455 13 50 0.0 0.0 0.00 0.00 0.00 96 1016.5
20260505100952 13 25 0.0 1.6 0.00 0.00 0.00 96 1016.4
20260505100449 13 22 0.0 0.0 0.00 0.00 0.00 95 1016.4
20260505095945 13 37 0.0 0.0 0.00 0.00 0.00 95 1016.5
20260505095442 13 50 0.0 0.0 0.00 0.00 0.00 95 1016.5
20260505094938 14 50 0.0 0.0 0.00 0.00 0.00 95 1016.5
20260505094435 14 50 0.0 0.0 0.00 0.00 0.00 95 1016.3
20260505093931 14 50 0.0 0.0 0.00 0.00 0.00 95 1016.4
20260505093428 14 50 0.0 0.0 0.00 0.00 0.00 95 1016.1
20260505092925 14 50 0.0 0.0 0.00 0.00 0.00 95 1016.2
20260505092423 14 32 0.0 0.0 0.00 0.00 0.00 94 1016.1
20260505091920 14 74 0.0 0.0 0.00 0.00 0.00 94 1016.3
20260505091418 14 60 0.0 0.0 0.00 0.00 0.00 94 1016.1
20260505090916 14 309 0.0 0.0 0.00 0.00 0.00 94 1016.2
20260505090414 14 55 0.0 0.0 0.00 0.00 0.00 94 1016.1
20260505085911 14 48 0.0 0.0 0.00 0.00 0.00 93 1016.3
20260505085409 14 55 0.0 0.0 0.00 0.00 0.00 93 1016.3
20260505084906 14 309 0.0 0.0 0.00 0.00 0.00 93 1016.2
20260505084404 14 309 0.0 0.0 0.00 0.00 0.00 93 1016.0
20260505083902 14 13 0.0 0.0 0.00 0.00 0.00 93 1016.1
20260505083359 14 66 0.0 0.0 0.00 0.00 0.00 93 1016.2
20260505082855 14 37 0.0 0.0 0.00 0.00 0.00 93 1016.1
20260505082351 14 37 0.0 0.0 0.00 0.00 0.00 92 1015.9
20260505081848 14 37 0.0 0.0 0.00 0.00 0.00 92 1015.7
20260505081345 14 57 0.0 0.0 0.00 0.00 0.00 91 1015.9
20260505080842 14 283 0.0 0.0 0.00 0.00 0.00 91 1016.0
20260505080338 15 37 0.0 0.0 0.00 0.00 0.00 91 1016.2
20260505075833 15 37 0.0 0.0 0.00 0.00 0.00 91 1016.1
20260505075330 15 37 0.0 0.0 0.00 0.00 0.00 91 1016.1
20260505074828 15 37 0.0 0.0 0.00 0.00 0.00 91 1016.1
20260505074325 15 37 0.0 0.0 0.00 0.00 0.00 90 1016.3
20260505073822 15 37 0.0 0.0 0.00 0.00 0.00 90 1016.3
20260505073320 15 37 0.0 0.0 0.00 0.00 0.00 90 1016.4
20260505072817 15 37 0.0 0.0 0.00 0.00 0.00 90 1016.1
20260505072313 15 37 0.0 0.0 0.00 0.00 0.00 89 1016.2
20260505071809 15 37 0.0 0.0 0.00 0.00 0.00 89 1016.5
20260505071306 15 249 0.0 0.0 0.00 0.00 0.00 89 1016.5
20260505070804 15 55 0.0 0.0 0.00 0.00 0.00 89 1016.3
20260505070300 15 55 0.0 0.0 0.00 0.00 0.00 89 1016.4
20260505065755 15 269 0.0 0.0 0.00 0.00 0.00 88 1016.5
20260505065252 15 269 0.0 0.0 0.00 0.00 0.00 88 1016.2
20260505064749 15 269 0.0 0.0 0.00 0.00 0.00 87 1016.2
20260505064246 16 269 0.0 0.0 0.00 0.00 0.00 87 1016.3
20260505063744 16 269 0.0 0.0 0.00 0.00 0.00 87 1016.3
20260505063240 16 269 0.0 0.0 0.00 0.00 0.00 86 1016.3
20260505062736 16 269 0.0 0.0 0.00 0.00 0.00 84 1016.7
20260505062234 16 37 0.0 0.0 0.00 0.00 0.00 84 1016.7
20260505061731 16 217 0.0 0.0 0.00 0.00 0.00 84 1016.7
20260505061229 16 217 0.0 0.0 0.00 0.00 0.00 84 1016.8
20260505060726 16 217 0.0 0.0 0.00 0.00 0.00 84 1016.7
20260505060223 16 217 0.0 0.0 0.00 0.00 0.00 84 1016.7
20260505055718 16 322 0.0 0.0 0.00 0.00 0.00 83 1016.8
20260505055215 17 322 0.0 0.0 0.00 0.00 0.00 82 1016.7
20260505054712 17 322 0.0 0.0 0.00 0.00 0.00 81 1016.8
20260505054210 17 230 0.0 0.0 0.00 0.00 0.00 80 1017.0
20260505053708 17 235 0.0 0.0 0.00 0.00 0.00 80 1016.9
20260505053204 17 229 0.0 0.0 0.00 0.00 0.00 77 1017.1
20260505052701 17 309 0.0 0.0 0.00 0.00 0.00 76 1017.3
20260505052158 18 309 0.0 0.0 0.00 0.00 0.00 77 1017.5
20260505051655 18 309 0.0 0.0 0.00 0.00 0.00 74 1017.4
20260505051154 18 229 0.0 0.0 0.00 0.00 0.00 74 1017.4
20260505050651 19 129 0.0 0.0 0.00 0.00 0.00 73 1017.6
20260505050149 20 129 0.0 0.0 0.00 0.00 0.00 66 1017.3
20260505041619 20 66 0.0 0.0 0.00 0.00 0.00 67 1017.8
20260505041116 20 66 0.0 1.6 0.00 0.00 0.00 67 1017.6
20260505040613 20 69 0.0 0.0 0.00 0.00 0.00 65 1017.5
20260505040110 20 76 0.0 0.0 0.00 0.00 0.00 65 1017.7
20260505035606 20 34 1.6 4.8 0.00 0.00 0.00 65 1017.7
20260505035103 20 89 0.0 0.0 0.00 0.00 0.00 66 1017.5
20260505034559 20 89 0.0 3.2 0.00 0.00 0.00 65 1017.5
20260505034056 20 260 0.0 0.0 0.00 0.00 0.00 66 1017.5
20260505033553 20 72 1.6 3.2 0.00 0.00 0.00 66 1017.8
20260505033052 20 230 0.0 0.0 0.00 0.00 0.00 66 1017.7
20260505032549 20 347 0.0 3.2 0.00 0.00 0.00 65 1017.7
20260505032045 20 129 0.0 0.0 0.00 0.00 0.00 65 1017.9
20260505031543 20 74 0.0 1.6 0.00 0.00 0.00 65 1017.6
20260505031039 20 80 0.0 4.8 0.00 0.00 0.00 64 1017.7
20260505030536 20 129 0.0 3.2 0.00 0.00 0.00 64 1017.9
20260505030032 20 59 1.6 3.2 0.00 0.00 0.00 64 1017.9
20260505025528 20 60 0.0 3.2 0.00 0.00 0.00 64 1017.7
20260505025027 20 32 0.0 3.2 0.00 0.00 0.00 64 1017.5
20260505024524 20 45 4.8 6.4 0.00 0.00 0.00 64 1017.9
20260505024021 20 48 0.0 3.2 0.00 0.00 0.00 64 1017.6
20260505023518 20 103 0.0 1.6 0.00 0.00 0.00 64 1017.9
20260505023015 20 344 0.0 1.6 0.00 0.00 0.00 65 1017.8
20260505022513 20 16 0.0 3.2 0.00 0.00 0.00 65 1017.9
20260505022010 20 50 0.0 3.2 0.00 0.00 0.00 65 1017.7
20260505021506 20 49 3.2 3.2 0.00 0.00 0.00 65 1017.8
20260505021003 20 47 0.0 1.6 0.00 0.00 0.00 65 1017.6
20260505020457 20 69 3.2 3.2 0.00 0.00 0.00 65 1017.7
20260505015954 20 29 0.0 3.2 0.00 0.00 0.00 66 1017.7
20260505015452 20 113 0.0 1.6 0.00 0.00 0.00 66 1017.9
20260505014949 20 89 0.0 3.2 0.00 0.00 0.00 66 1017.8
20260505014445 20 49 0.0 3.2 0.00 0.00 0.00 66 1017.7
20260505013943 20 145 0.0 3.2 0.00 0.00 0.00 66 1017.7
20260505013440 20 89 0.0 0.0 0.00 0.00 0.00 65 1017.5
20260505012937 20 70 0.0 3.2 0.00 0.00 0.00 65 1017.8
20260505012435 20 89 0.0 3.2 0.00 0.00 0.00 66 1017.6
20260505011931 20 89 0.0 3.2 0.00 0.00 0.00 66 1017.7
20260505011428 20 36 1.6 3.2 0.00 0.00 0.00 67 1017.3
20260505010925 20 56 1.6 3.2 0.00 0.00 0.00 66 1017.5
20260505010420 20 229 0.0 0.0 0.00 0.00 0.00 66 1017.3
20260505005916 20 37 0.0 0.0 0.00 0.00 0.00 66 1017.4
20260505005414 20 69 0.0 0.0 0.00 0.00 0.00 66 1017.4
20260505004911 21 44 0.0 1.6 0.00 0.00 0.00 66 1017.2
20260505004407 21 230 0.0 1.6 0.00 0.00 0.00 65 1017.2
20260505003904 21 39 3.2 3.2 0.00 0.00 0.00 65 1017.3
20260505003401 21 73 0.0 3.2 0.00 0.00 0.00 65 1017.2
20260505002857 21 77 0.0 1.6 0.00 0.00 0.00 65 1017.2
20260505002354 21 89 0.0 3.2 0.00 0.00 0.00 65 1017.3
20260505001853 21 74 0.0 3.2 0.00 0.00 0.00 64 1017.4
20260505001349 21 44 0.0 3.2 0.00 0.00 0.00 64 1017.3
20260505000847 21 26 1.6 4.8 0.00 0.00 0.00 63 1017.3
20260505000344 21 45 1.6 4.8 0.00 0.00 0.00 63 1017.1
20260504235841 21 54 0.0 3.2 0.00 0.00 0.00 62 1017.0
20260504235338 21 232 0.0 3.2 0.00 0.00 0.00 62 1017.1
20260504234834 21 57 1.6 3.2 0.00 0.00 0.00 63 1017.0
20260504234332 21 336 0.0 1.6 0.00 0.00 0.00 62 1016.9
20260504233829 22 41 3.2 3.2 0.00 0.00 0.00 62 1017.1
20260504233324 22 89 0.0 6.4 0.00 0.00 0.00 63 1016.8
20260504232821 22 12 1.6 3.2 0.00 0.00 0.00 61 1016.7
20260504232319 22 18 3.2 8.0 0.00 0.00 0.00 61 1016.6
20260504231815 22 33 3.2 4.8 0.00 0.00 0.00 61 1016.5
20260504231312 22 66 4.8 4.8 0.00 0.00 0.00 62 1016.6
20260504230808 22 44 0.0 3.2 0.00 0.00 0.00 61 1016.6
20260504230306 22 30 1.6 6.4 0.00 0.00 0.00 60 1016.6
20260504225805 22 56 0.0 4.8 0.00 0.00 0.00 61 1016.5
20260504225301 22 5 0.0 4.8 0.00 0.00 0.00 60 1016.8
20260504224758 22 50 8.0 8.0 0.00 0.00 0.00 59 1016.7
20260504224255 22 67 1.6 6.4 0.00 0.00 0.00 59 1016.9
20260504223751 22 63 0.0 3.2 0.00 0.00 0.00 61 1016.8
20260504223247 22 121 0.0 8.0 0.00 0.00 0.00 60 1016.9
20260504222744 23 132 0.0 3.2 0.00 0.00 0.00 60 1017.1
20260504222241 23 38 3.2 8.0 0.00 0.00 0.00 58 1017.1
20260504221739 23 57 1.6 4.8 0.00 0.00 0.00 57 1017.0
20260504221235 23 193 0.0 3.2 0.00 0.00 0.00 59 1017.1
20260504220732 23 81 0.0 3.2 0.00 0.00 0.00 59 1016.9
20260504220229 23 61 3.2 3.2 0.00 0.00 0.00 58 1016.9
20260504215726 23 38 1.6 4.8 0.00 0.00 0.00 59 1016.8
20260504215223 23 59 0.0 8.0 0.00 0.00 0.00 56 1016.8
20260504214719 23 37 3.2 6.4 0.00 0.00 0.00 58 1016.8